SCP
0 0 0 0 0 0 0 0 0 0 0 0 0 0 0 0 0 0 0 0 0 0 0 0 0 0 0 0 0 0 0 0 0 0 0 0 0 0 0 0 0 0 0 0 0 0 0 0 0 0 0 0 -0 0
0 0 0 0 0 0 0 0 0 0 0 0 0 0 0 0 0 0 0 0 0 0 0 0 0 0 0 0 0 0 0 0 0 0 0 0 0 0 0 0 0 0 0 0 0 0 0 0 0 0 0 -0 0 0
0 0 0 0 0 0 0 0 0 0 0 0 0 0 0 0 0 0 0 0 0 0 0 0 0 0 0 0 0 0 0 0 0 0 0 0 0 0 0 0 0 0 0 0 0 0 0 0 0 0 0 0 0 -0
0 0 0 0 0 0 0 0 0 0 0 0 0 0 0 0 0 0 0 0 0 0 0 0 0 0 0 0 0 -0 0 0 0 0 0 0 0 0 0 0 0 0 -0 0 0 0 0 0 0 -0 -0 -0 -0 0
0 0 0 0 0 0 0 0 0 0 0 0 -0 0 0 0 0 0 0 0 0 0 0 0 0 0 0 0 0 -0 -0 0 0 0 0 0 0 0 0 0 0 0 0 0 0 0 0 0 0 0 -0 -0 0 -0
0 0 0 0 0 0 0 0 0 0 0 0 -0 -0 0 0 0 0 0 0 0 0 0 0 0 0 0 0 0 -0 -0 0 0 0 0 0 0 0 0 0 0 0 0 0 0 0 0 0 0 -0 -0 -0 -0 -0
0 0 0 0 0 0 0 0 0 0 -0 0 -0 0 0 0 0 0 0 0 0 0 0 0 0 0 0 -0 -0 0 0 0 0 0 0 0 0 0 0 0 0 -0 0 0 0 0 0 0 0 -0 -0 -0 -0 -0
0 0 0 0 0 0 0 0 0 0 -0 -0 -0 -0 0 0 0 0 0 0 0 0 0 0 0 0 0 0 0 0 0 0 0 0 0 0 0 0 0 0 0 0 0 0 0 0 0 0 0 0 0 -0 -0 0
0 0 0 0 0 0 0 0 0 0 0 0 0 0 0 0 0 0 0 0 0 0 0 0 0 0 0 0 0 0 -0 0 0 0 0 0 0 0 0 0 0 0 0 0 0 0 0 -0 -0 0 0 0 0 0
0 0 0 0 0 0 0 0 0 0 0 0 0 0 0 0 0 0 0 0 0 0 0 0 0 0 0 0 -0 -0 0 -0 0 0 0 0 0 0 0 0 0 0 0 0 0 0 -0 0 0 0 0 0 0 0
0 0 0 0 0 0 0 0 0 0 0 0 0 0 0 0 0 0 0 0 0 0 0 -0 0 0 0 0 0 -0 -0 -0 -0 -0 0 0 0 0 0 -0 0 0 0 0 0 0 0 -0 0 0 0 0 0 0
0 0 0 0 0 0 0 0 0 0 0 0 0 0 0 0 0 0 0 0 0 0 0 0 0 0 0 0 0 -0 0 -0 0 -0 0 -0 -0 -0 -0 0 0 0 0 0 0 0 -0 -0 0 0 0 0 0 0
0 0 0 0 0 0 0 0 0 0 0 0 0 0 0 0 0 0 0 0 0 0 0 0 0 0 0 0 0 0 0 -0 0 0 -0 0 -0 -0 0 0 0 0 0 0 0 0 0 -0 -0 -0 0 0 0 0
0 0 0 0 0 0 0 0 0 0 0 0 0 0 0 0 0 0 0 0 0 0 0 0 0 0 0 0 0 0 0 0 -0 0 0 -0 -0 -0 -0 0 0 0 0 0 0 0 -0 -0 -0 -0 0 0 0 0
0 0 0 0 0 0 0 0 0 0 0 0 0 0 0 0 0 0 0 0 0 0 0 0 -0 0 -0 -0 0 0 0 0 0 0 0 -0 -0 -0 -0 -0 -0 0 0 0 0 0 -0 -0 -0 -0 -0 0 0 0
0 0 0 0 0 0 0 0 0 0 0 0 0 0 0 0 0 0 0 0 0 0 0 0 -0 -0 -0 -0 -0 0 0 0 0 0 0 0 -0 -0 -0 -0 -0 0 -0 0 0 0 -0 -0 -0 -0 -0 -0 0 0
0 0 0 0 0 0 0 0 0 0 0 0 0 0 0 0 0 0 0 0 0 0 0 -0 -0 -0 -0 -0 0 0 0 0 0 0 0 0 -0 -0 -0 -0 -0 -0 0 0 0 0 0 -0 -0 -0 -0 -0 -0 0
0 0 0 0 0 0 0 0 0 0 0 0 0 0 0 0 0 0 0 0 0 0 0 -0 -0 -0 -0 -0 -0 0 0 0 0 0 0 0 0 -0 -0 -0 -0 -0 -0 0 0 0 0 0 0 -0 -0 -0 -0 -0
0 0 0 0 0 0 0 0 0 0 0 0 0 0 0 0 0 0 0 0 0 0 0 0 0 -0 -0 -0 -0 0 -0 -0 0 0 0 0 0 0 -0 -0 -0 -0 -0 -0 0 -0 -0 0 -0 0 -0 -0 -0 -0
0 0 0 0 0 0 0 0 0 0 0 0 0 0 0 0 0 0 -0 0 0 0 0 0 0 0 -0 0 0 -0 -0 -0 -0 0 0 0 0 0 0 0 0 -0 -0 -0 -0 -0 0 0 -0 0 -0 -0 -0 -0
0 0 0 0 0 0 0 0 0 0 0 0 0 0 0 0 0 -0 -0 0 0 0 0 0 0 0 0 0 -0 -0 -0 0 0 -0 0 0 0 0 0 0 0 0 0 -0 -0 -0 -0 -0 0 -0 -0 -0 -0 -0
0 0 0 0 0 0 0 0 0 0 0 0 0 0 0 0 0 0 0 0 0 0 0 0 0 0 0 0 0 -0 -0 -0 0 0 0 0 0 0 0 0 0 0 0 0 -0 -0 -0 -0 0 -0 0 0 0 -0
0 0 0 0 0 0 0 0 0 0 0 0 0 0 0 0 0 0 0 0 0 0 0 0 0 0 0 0 0 0 -0 -0 0 0 0 0 0 0 0 0 0 0 0 0 0 0 -0 -0 -0 0 0 0 0 0
0 0 0 0 0 0 0 0 0 0 0 0 0 0 0 0 0 0 0 0 0 0 0 0 0 0 0 0 0 -0 -0 -0 -0 -0 -0 0 0 0 0 0 0 0 0 0 0 0 0 -0 -0 0 0 0 0 0
0 0 0 0 0 0 0 0 0 0 0 0 0 0 0 0 0 0 0 0 0 0 0 0 0 0 0 0 0 0 -0 -0 -0 0 -0 -0 0 0 0 0 0 0 0 0 0 0 -0 0 0 -0 -0 -0 -0 -0
0 0 0 0 0 0 0 0 0 0 0 0 0 0 0 0 0 0 0 0 0 0 0 0 0 0 0 0 0 0 -0 -0 -0 -0 -0 0 0 0 0 0 0 0 0 0 0 0 0 0 0 0 0 0 -0 -0
0 0 0 0 0 0 0 0 0 0 0 0 0 0 0 0 0 0 0 0 0 0 0 0 0 0 0 0 0 0 0 0 -0 -0 -0 -0 -0 -0 0 0 0 0 0 0 0 0 0 0 0 0 0 0 0 0
0 0 0 0 0 0 0 0 0 0 0 0 0 0 0 0 0 0 0 0 0 0 0 0 0 0 0 0 0 0 0 0 0 0 0 0 0 -0 0 0 0 0 0 0 0 0 0 0 0 0 0 0 0 0
0 0 0 0 0 0 0 0 0 0 0 0 0 0 0 0 0 0 0 0 0 0 0 0 0 0 0 0 0 -0 -0 -0 -0 0 0 0 0 0 0 0 0 0 0 0 0 0 0 0 0 0 0 0 0 0
0 0 0 0 0 0 0 0 0 0 0 0 0 0 0 0 0 0 0 0 0 0 0 0 0 0 0 0 0 0 0 -0 -0 -0 -0 -0 0 0 0 0 0 0 0 0 0 0 0 0 0 0 0 0 0 0
0 0 0 0 0 0 0 0 0 0 0 0 0 0 0 0 0 0 0 0 0 0 0 0 0 0 0 0 0 0 0 0 -0 0 -0 -0 -0 -0 0 0 -0 -0 0 0 0 0 0 0 0 0 0 0 0 0
0 0 0 0 0 0 0 0 0 0 0 0 0 0 0 0 0 0 0 0 0 0 0 0 0 0 0 0 0 0 0 0 0 -0 0 -0 -0 -0 -0 0 0 -0 0 0 0 0 0 0 0 0 0 0 0 0
0 0 0 0 0 0 0 0 0 0 0 0 0 0 0 0 0 0 0 0 0 0 0 0 0 0 0 0 0 0 0 0 0 0 0 -0 0 -0 -0 0 0 0 0 0 0 0 0 0 0 0 0 0 0 0
Wind_Speed_500mb
38 37 34 36 39 38 40 40 43 42 40 45 42 41 43 41 30 23 17 8 16 20 56 49 54 50 29 21 8 17 18 7 10 9 4 4 2 5 7 6 5 7 4 6 6 8 11 2 3 2 12 61 54 49
38 36 35 36 38 37 36 38 42 42 40 44 44 42 42 40 32 22 30 14 24 34 46 77 81 77 78 77 58 26 20 7 6 5 5 6 6 6 5 6 7 3 10 5 10 10 11 28 26 33 41 52 57 49
39 38 35 36 39 35 34 38 41 42 41 44 44 42 41 41 37 25 34 37 27 27 56 20 12 20 22 13 21 21 19 25 16 23 3 5 6 3 4 8 7 10 3 7 1 12 28 31 34 37 45 51 43 44
39 38 37 36 40 35 33 38 41 41 41 44 44 42 41 42 40 37 40 34 20 17 12 21 36 55 16 25 38 35 40 11 19 12 8 6 4 9 5 10 16 23 10 8 14 25 28 20 31 51 44 46 36 60
36 41 38 37 40 36 32 38 40 40 40 44 43 41 41 43 44 36 16 6 2 10 10 33 59 23 44 13 16 42 38 48 23 7 6 6 8 5 7 7 8 9 5 5 7 16 16 20 38 45 44 32 49 45
37 43 42 40 40 36 33 35 38 40 40 40 40 39 39 40 37 24 2 12 9 14 11 8 28 30 49 25 16 22 39 46 31 11 9 9 9 4 6 7 13 26 17 23 15 19 20 29 38 45 39 36 48 40
45 42 41 41 39 36 33 33 37 40 39 36 35 36 31 30 23 8 3 4 11 7 9 11 15 23 28 31 17 24 39 27 19 8 11 7 9 14 5 9 15 35 40 34 22 20 19 29 45 38 30 52 36 34
54 44 39 38 36 35 32 32 37 39 35 32 31 29 24 17 10 7 8 9 16 14 6 5 8 17 17 14 4 6 13 20 8 7 6 7 6 12 8 17 20 23 28 14 10 19 25 35 35 35 36 29 34 36
55 47 38 37 35 33 30 33 36 37 34 28 24 23 8 8 4 8 18 13 2 4 4 4 6 7 26 17 18 7 7 4 7 4 6 7 5 8 13 24 9 21 10 7 12 22 25 37 34 33 41 31 31 35
49 47 40 37 35 29 28 31 35 34 32 21 6 3 3 4 9 24 5 2 2 3 4 6 6 7 13 12 9 8 8 4 4 7 8 7 5 33 44 25 10 11 5 9 20 25 34 34 32 35 24 32 29 29
50 42 39 34 30 25 24 29 31 29 22 8 3 3 2 11 6 5 5 6 5 3 6 10 14 9 15 6 6 8 6 5 4 1 5 2 5 15 55 35 5 11 11 12 14 18 20 34 39 42 24 29 30 26
43 38 33 30 28 22 21 25 24 20 15 11 6 3 4 3 7 5 5 9 6 4 9 9 20 20 14 9 7 11 6 7 6 2 5 6 10 58 48 37 14 8 13 6 13 22 25 39 41 41 26 25 24 21
40 35 31 35 29 21 21 20 18 11 6 3 2 2 2 4 3 5 5 6 5 3 8 26 14 14 9 8 8 4 6 8 28 3 5 6 48 54 40 23 19 4 3 6 13 18 21 31 39 39 37 29 24 20
35 35 36 36 25 22 17 17 13 5 5 5 5 7 6 2 4 4 5 6 4 13 29 33 20 8 9 3 2 5 6 6 6 13 11 14 69 49 36 43 32 19 4 8 15 24 26 34 43 41 38 37 33 30
50 46 40 31 24 19 16 14 9 12 7 5 4 4 7 2 12 16 21 24 16 29 37 36 22 8 5 5 0 5 6 10 8 6 7 49 69 60 46 42 46 33 2 7 14 20 26 28 35 44 35 35 38 38
51 42 38 26 22 18 14 12 13 10 6 5 7 3 7 7 10 14 10 15 19 29 35 15 5 8 9 9 8 15 11 9 7 12 49 64 69 63 62 46 41 33 8 4 14 18 21 24 26 34 42 34 33 37
45 41 31 25 22 19 16 22 12 9 7 6 8 12 22 15 4 23 15 17 21 17 3 6 6 3 3 6 6 6 7 12 39 46 61 59 65 68 67 66 39 38 19 12 7 13 13 12 17 25 39 40 36 32
44 36 28 28 27 23 25 14 9 10 11 15 7 13 5 1 20 12 10 23 16 10 7 4 6 11 6 5 4 7 31 43 36 47 53 52 53 53 62 59 57 41 29 14 15 10 7 1 8 12 24 30 28 34
39 34 36 33 34 20 12 12 8 6 18 10 18 15 9 29 22 18 17 12 8 5 6 10 8 5 3 4 16 32 34 40 52 59 52 50 45 44 54 58 63 47 21 9 9 9 9 2 2 12 17 25 25 20
34 33 34 37 38 11 8 8 12 7 6 5 9 7 10 21 25 19 19 15 18 12 13 6 4 4 7 21 24 29 33 43 52 57 54 56 53 40 45 47 55 47 33 17 15 10 5 2 6 9 14 14 22 24
46 38 33 32 31 10 7 7 12 10 6 4 3 12 20 26 17 18 17 15 16 9 7 6 6 8 13 17 25 29 39 47 43 43 50 54 46 47 42 40 45 47 37 31 17 18 21 9 11 8 7 9 13 21
45 35 27 29 9 11 8 12 7 8 10 7 6 11 16 11 13 8 13 13 8 7 6 4 4 9 11 16 21 28 41 40 35 35 38 36 44 43 37 36 34 38 45 33 25 29 16 7 13 12 4 4 8 15
40 33 20 11 8 17 9 13 9 10 5 9 9 5 6 9 16 20 10 8 8 10 7 3 4 4 8 12 17 29 36 43 37 40 44 34 32 36 31 30 29 35 37 35 27 23 16 15 1 22 14 4 10 13
41 17 10 13 14 9 7 9 11 5 7 6 7 6 8 14 22 8 4 8 20 8 4 5 6 7 9 14 22 30 34 38 42 29 34 48 41 42 36 34 31 35 37 30 22 17 19 11 6 23 19 11 12 12
12 13 10 9 14 8 9 8 9 6 6 7 8 4 6 12 5 4 6 13 21 10 6 4 4 6 10 13 18 23 27 31 37 34 29 37 45 42 41 42 37 39 40 36 30 24 19 8 6 15 23 28 19 22
7 13 16 16 7 9 9 9 10 10 6 7 9 11 10 8 6 7 9 24 21 14 10 6 4 6 9 11 17 26 33 34 27 25 25 30 39 43 43 47 51 47 42 42 41 33 22 17 16 10 12 16 36 32
8 10 13 17 11 11 7 9 20 11 9 9 7 6 6 7 5 6 21 23 22 15 12 7 6 9 8 6 12 22 27 33 32 20 17 19 26 34 36 45 49 47 38 36 38 34 28 22 22 22 25 20 29 41
12 7 10 16 13 18 5 6 8 8 7 10 17 6 9 8 5 18 19 26 22 20 14 8 6 7 5 7 13 19 25 28 31 27 13 24 33 41 41 38 45 41 35 30 35 36 32 31 30 29 28 35 37 28
11 12 15 13 14 7 16 10 9 11 17 20 8 5 8 10 26 36 34 31 28 20 17 14 11 10 14 14 17 22 26 32 40 45 50 49 50 50 48 46 46 51 50 48 40 36 32 31 29 27 30 36 44 51
12 22 13 13 11 9 10 13 12 10 17 29 30 50 52 39 32 34 35 29 23 18 15 12 10 6 6 9 10 19 26 30 38 43 46 47 43 42 45 45 45 48 50 51 51 45 35 20 18 21 28 37 42 40
11 27 13 13 12 20 16 25 23 31 36 34 64 67 48 39 41 33 23 18 16 10 7 12 9 5 3 8 10 14 22 24 31 36 39 42 33 34 39 41 41 42 44 46 48 49 47 40 30 18 11 21 39 41
20 15 19 8 9 30 26 22 12 23 36 37 34 39 33 19 10 13 15 14 11 9 13 9 6 4 3 4 4 6 17 19 25 33 40 45 36 34 36 36 37 37 38 40 42 46 48 43 39 34 25 15 8 27
28 21 23 20 12 12 17 19 8 13 16 17 19 32 23 13 9 9 16 11 12 15 13 8 3 2 7 11 13 14 11 10 18 30 37 40 36 34 32 33 34 33 33 34 36 40 44 47 47 43 40 31 22 13
Wind_Direction_500mb
270 278 288 296 304 313 321 327 334 333 335 331 334 339 337 334 341 339 352 245 311 277 284 281 272 263 261 263 264 318 337 346 346 8 301 309 308 299 348 289 231 214 228 242 242 247 281 125 349 132 247 287 296 301
267 273 282 291 299 306 317 323 330 330 331 329 329 336 335 331 327 324 315 275 285 279 265 285 284 279 263 271 259 255 242 314 291 0 359 322 320 336 343 276 314 296 209 226 211 236 239 260 269 279 315 294 298 298
264 269 277 288 294 302 312 318 327 328 328 327 325 332 333 327 326 316 306 311 307 293 307 297 330 348 340 350 265 215 257 233 236 245 279 268 260 121 288 261 312 311 235 239 190 254 255 283 320 315 308 303 307 308
264 267 274 284 289 296 306 314 323 325 325 326 324 329 329 327 322 321 315 313 281 273 278 285 310 322 358 271 256 245 236 228 245 226 236 271 251 214 259 252 298 274 272 304 254 270 291 301 314 316 312 314 307 320
259 268 271 277 284 290 302 310 321 321 325 324 322 326 327 326 324 331 344 357 227 224 282 297 322 3 0 308 240 236 226 230 226 218 224 246 236 281 268 251 243 233 227 266 285 281 266 291 317 330 320 317 326 316
252 264 268 272 279 282 293 307 318 320 322 324 321 323 328 329 332 339 66 64 43 264 303 307 322 335 8 342 281 205 210 220 221 217 218 231 237 166 263 259 256 252 268 307 264 278 284 328 319 325 313 328 322 319
235 258 267 271 275 278 288 308 317 319 321 321 319 319 328 340 330 334 324 284 351 324 281 293 302 317 354 19 354 233 222 221 217 226 227 230 231 204 250 256 277 322 300 293 266 323 309 300 329 327 319 338 332 324
227 245 264 267 273 276 288 306 314 316 323 319 315 310 312 318 320 353 355 343 279 291 294 302 289 303 340 329 262 233 227 210 235 244 240 224 223 218 261 258 279 302 301 255 283 318 310 335 325 329 328 339 343 338
226 228 263 264 268 272 288 305 314 317 323 323 308 311 315 213 309 317 322 319 26 246 17 310 294 297 326 322 292 226 203 205 232 221 227 202 232 231 236 243 243 312 228 256 315 338 341 347 342 335 345 348 346 343
229 231 258 256 259 266 287 308 313 323 326 334 308 38 88 78 280 316 355 160 119 189 234 258 259 271 307 312 289 333 205 230 244 226 192 210 253 273 340 312 318 170 13 14 0 351 353 351 346 353 356 355 351 349
231 230 249 247 251 261 290 307 316 323 338 353 298 184 277 248 270 264 239 204 160 226 234 254 245 262 292 259 286 281 283 228 277 287 258 263 3 345 338 323 248 172 13 10 12 2 4 1 1 359 353 353 358 358
224 237 233 240 242 257 288 301 314 324 336 338 346 77 140 190 241 248 222 144 194 235 214 228 283 269 284 290 308 324 298 321 256 315 277 15 320 317 325 337 185 113 11 57 19 5 8 5 5 7 0 351 357 7
213 232 221 236 239 254 275 295 297 312 334 336 23 4 228 220 9 235 18 352 340 247 311 326 309 283 233 237 274 305 281 258 327 39 37 359 328 350 11 50 119 36 124 89 37 24 21 17 11 12 15 16 17 25
205 211 225 233 241 255 268 274 273 261 168 227 196 323 171 278 276 98 185 217 256 316 326 317 306 264 260 181 126 280 293 312 26 13 10 325 328 354 1 27 26 20 165 42 27 18 18 22 25 27 22 27 28 33
209 212 228 228 240 242 249 251 250 178 187 234 246 234 223 309 78 60 34 20 7 346 339 324 309 240 317 67 347 302 303 43 45 352 290 324 329 354 7 8 4 4 189 62 18 25 19 21 29 34 31 35 44 48
204 213 225 219 218 224 212 213 159 145 198 228 233 287 283 53 15 14 5 15 14 360 346 335 352 37 350 348 15 13 7 23 344 314 336 336 340 0 4 2 360 4 341 14 31 16 20 22 30 39 43 42 41 50
197 214 209 199 192 186 187 161 159 201 221 221 238 255 263 262 73 78 59 15 354 1 346 320 42 225 341 43 41 21 344 318 315 337 332 339 344 348 348 4 1 3 342 256 318 11 22 15 27 35 42 45 48 47
203 199 186 176 171 167 165 171 196 210 225 231 242 280 219 345 112 77 22 358 7 355 335 26 20 37 35 28 15 331 312 315 331 330 329 337 338 352 360 350 5 5 1 334 252 325 339 344 27 46 43 43 49 55
195 186 170 169 165 149 159 188 205 242 227 223 239 245 107 113 94 72 41 29 41 49 67 49 59 53 23 356 312 315 338 347 335 331 333 342 352 355 6 5 10 18 15 358 298 10 33 353 73 42 47 44 42 62
177 166 169 167 164 153 174 200 197 229 246 183 204 220 126 121 102 69 46 50 84 63 56 52 51 336 301 325 355 357 348 341 337 333 338 345 358 2 8 9 8 11 19 38 81 55 66 59 163 73 46 53 52 63
150 150 154 169 179 183 203 198 191 211 210 220 254 171 131 132 109 82 67 60 61 46 83 88 29 354 360 14 358 1 353 351 347 340 337 340 359 8 360 11 15 16 31 30 16 13 14 162 197 173 49 49 75 74
156 162 159 159 165 186 247 217 215 171 183 205 227 213 150 143 140 122 111 64 80 95 110 83 4 3 359 5 5 356 356 0 1 358 353 356 3 359 3 12 3 0 17 31 42 25 6 1 222 231 275 54 114 94
147 149 142 162 181 198 245 202 196 195 170 196 183 131 138 130 132 138 85 98 126 126 80 86 29 28 9 2 356 360 1 4 4 9 360 3 4 10 15 15 10 353 348 8 21 31 14 58 334 228 242 224 151 132
151 155 168 189 196 207 220 200 188 201 196 123 141 189 149 128 148 90 109 122 142 149 117 89 60 38 30 15 15 6 2 359 2 1 359 7 6 13 20 21 23 17 4 358 360 9 22 115 235 198 210 215 197 167
161 186 188 193 191 206 200 169 170 189 189 158 175 181 148 131 88 103 143 149 159 160 150 116 77 42 16 7 7 6 1 357 357 9 11 6 2 5 10 14 13 13 6 0 355 356 8 2 168 174 193 219 213 203
175 193 182 194 211 205 208 176 164 170 167 158 190 167 123 104 100 154 172 156 171 163 159 140 93 46 23 10 2 5 8 4 0 16 16 20 9 14 12 8 2 359 4 1 351 344 330 318 301 257 225 203 219 215
193 208 197 211 226 221 238 197 159 130 169 179 166 121 112 120 135 141 156 174 170 157 153 128 90 48 29 50 13 2 8 13 16 8 22 13 8 14 20 12 360 351 347 347 345 339 327 298 276 254 242 215 194 210
220 210 206 195 217 228 237 160 137 165 185 173 151 125 136 146 144 160 177 164 146 133 144 124 113 67 68 25 15 8 6 6 13 29 43 33 25 17 12 15 4 2 0 349 339 334 322 309 298 264 242 231 208 198
215 214 204 234 217 233 210 192 177 174 182 166 100 94 111 116 143 139 144 156 166 177 167 172 161 140 104 72 39 19 5 1 4 8 8 6 8 11 7 4 6 6 7 6 1 350 328 315 308 285 248 232 220 228
230 202 214 198 159 196 222 204 186 185 165 143 111 115 110 111 131 149 155 167 173 174 177 182 179 182 102 64 50 25 11 2 356 359 2 0 356 354 356 358 3 5 6 5 4 2 1 334 297 282 266 248 237 234
204 198 215 197 178 187 169 140 135 138 130 127 139 137 130 120 122 120 132 161 177 187 198 167 153 137 88 55 41 14 3 358 347 345 348 347 344 349 356 357 359 3 6 8 10 10 9 11 11 354 324 259 242 242
203 210 185 164 179 191 172 136 100 115 121 128 125 132 131 118 106 139 123 186 181 144 135 152 178 158 180 237 272 350 4 359 346 337 337 340 340 346 353 358 0 3 7 10 14 18 21 21 18 17 13 354 325 242
208 219 215 190 176 117 133 124 114 111 119 124 133 138 125 110 114 151 158 188 192 172 163 156 139 225 258 285 302 303 290 346 326 318 327 333 332 339 353 0 4 6 10 13 19 23 25 27 30 30 27 23 19 357
Wind_Speed_850mb
38 37 34 36 39 38 40 40 43 42 40 45 42 41 43 41 30 23 17 8 16 20 56 49 54 50 29 21 8 17 18 7 10 9 4 4 2 5 7 6 5 7 4 6 6 8 11 2 3 2 12 61 54 49
38 36 35 36 38 37 36 38 42 42 40 44 44 42 42 40 32 22 30 14 24 34 46 77 81 77 78 77 58 26 20 7 6 5 5 6 6 6 5 6 7 3 10 5 10 10 11 28 26 33 41 52 57 49
39 38 35 36 39 35 34 38 41 42 41 44 44 42 41 41 37 25 34 37 27 27 56 20 12 20 22 13 21 21 19 25 16 23 3 5 6 3 4 8 7 10 3 7 1 12 28 31 34 37 45 51 43 44
39 38 37 36 40 35 33 38 41 41 41 44 44 42 41 42 40 37 40 34 20 17 12 21 36 55 16 25 38 35 40 11 19 12 8 6 4 9 5 10 16 23 10 8 14 25 28 20 31 51 44 46 36 60
36 41 38 37 40 36 32 38 40 40 40 44 43 41 41 43 44 36 16 6 2 10 10 33 59 23 44 13 16 42 38 48 23 7 6 6 8 5 7 7 8 9 5 5 7 16 16 20 38 45 44 32 49 45
37 43 42 40 40 36 33 35 38 40 40 40 40 39 39 40 37 24 2 12 9 14 11 8 28 30 49 25 16 22 39 46 31 11 9 9 9 4 6 7 13 26 17 23 15 19 20 29 38 45 39 36 48 40
45 42 41 41 39 36 33 33 37 40 39 36 35 36 31 30 23 8 3 4 11 7 9 11 15 23 28 31 17 24 39 27 19 8 11 7 9 14 5 9 15 35 40 34 22 20 19 29 45 38 30 52 36 34
54 44 39 38 36 35 32 32 37 39 35 32 31 29 24 17 10 7 8 9 16 14 6 5 8 17 17 14 4 6 13 20 8 7 6 7 6 12 8 17 20 23 28 14 10 19 25 35 35 35 36 29 34 36
55 47 38 37 35 33 30 33 36 37 34 28 24 23 8 8 4 8 18 13 2 4 4 4 6 7 26 17 18 7 7 4 7 4 6 7 5 8 13 24 9 21 10 7 12 22 25 37 34 33 41 31 31 35
49 47 40 37 35 29 28 31 35 34 32 21 6 3 3 4 9 24 5 2 2 3 4 6 6 7 13 12 9 8 8 4 4 7 8 7 5 33 44 25 10 11 5 9 20 25 34 34 32 35 24 32 29 29
50 42 39 34 30 25 24 29 31 29 22 8 3 3 2 11 6 5 5 6 5 3 6 10 14 9 15 6 6 8 6 5 4 1 5 2 5 15 55 35 5 11 11 12 14 18 20 34 39 42 24 29 30 26
43 38 33 30 28 22 21 25 24 20 15 11 6 3 4 3 7 5 5 9 6 4 9 9 20 20 14 9 7 11 6 7 6 2 5 6 10 58 48 37 14 8 13 6 13 22 25 39 41 41 26 25 24 21
40 35 31 35 29 21 21 20 18 11 6 3 2 2 2 4 3 5 5 6 5 3 8 26 14 14 9 8 8 4 6 8 28 3 5 6 48 54 40 23 19 4 3 6 13 18 21 31 39 39 37 29 24 20
35 35 36 36 25 22 17 17 13 5 5 5 5 7 6 2 4 4 5 6 4 13 29 33 20 8 9 3 2 5 6 6 6 13 11 14 69 49 36 43 32 19 4 8 15 24 26 34 43 41 38 37 33 30
50 46 40 31 24 19 16 14 9 12 7 5 4 4 7 2 12 16 21 24 16 29 37 36 22 8 5 5 0 5 6 10 8 6 7 49 69 60 46 42 46 33 2 7 14 20 26 28 35 44 35 35 38 38
51 42 38 26 22 18 14 12 13 10 6 5 7 3 7 7 10 14 10 15 19 29 35 15 5 8 9 9 8 15 11 9 7 12 49 64 69 63 62 46 41 33 8 4 14 18 21 24 26 34 42 34 33 37
45 41 31 25 22 19 16 22 12 9 7 6 8 12 22 15 4 23 15 17 21 17 3 6 6 3 3 6 6 6 7 12 39 46 61 59 65 68 67 66 39 38 19 12 7 13 13 12 17 25 39 40 36 32
44 36 28 28 27 23 25 14 9 10 11 15 7 13 5 1 20 12 10 23 16 10 7 4 6 11 6 5 4 7 31 43 36 47 53 52 53 53 62 59 57 41 29 14 15 10 7 1 8 12 24 30 28 34
39 34 36 33 34 20 12 12 8 6 18 10 18 15 9 29 22 18 17 12 8 5 6 10 8 5 3 4 16 32 34 40 52 59 52 50 45 44 54 58 63 47 21 9 9 9 9 2 2 12 17 25 25 20
34 33 34 37 38 11 8 8 12 7 6 5 9 7 10 21 25 19 19 15 18 12 13 6 4 4 7 21 24 29 33 43 52 57 54 56 53 40 45 47 55 47 33 17 15 10 5 2 6 9 14 14 22 24
46 38 33 32 31 10 7 7 12 10 6 4 3 12 20 26 17 18 17 15 16 9 7 6 6 8 13 17 25 29 39 47 43 43 50 54 46 47 42 40 45 47 37 31 17 18 21 9 11 8 7 9 13 21
45 35 27 29 9 11 8 12 7 8 10 7 6 11 16 11 13 8 13 13 8 7 6 4 4 9 11 16 21 28 41 40 35 35 38 36 44 43 37 36 34 38 45 33 25 29 16 7 13 12 4 4 8 15
40 33 20 11 8 17 9 13 9 10 5 9 9 5 6 9 16 20 10 8 8 10 7 3 4 4 8 12 17 29 36 43 37 40 44 34 32 36 31 30 29 35 37 35 27 23 16 15 1 22 14 4 10 13
41 17 10 13 14 9 7 9 11 5 7 6 7 6 8 14 22 8 4 8 20 8 4 5 6 7 9 14 22 30 34 38 42 29 34 48 41 42 36 34 31 35 37 30 22 17 19 11 6 23 19 11 12 12
12 13 10 9 14 8 9 8 9 6 6 7 8 4 6 12 5 4 6 13 21 10 6 4 4 6 10 13 18 23 27 31 37 34 29 37 45 42 41 42 37 39 40 36 30 24 19 8 6 15 23 28 19 22
7 13 16 16 7 9 9 9 10 10 6 7 9 11 10 8 6 7 9 24 21 14 10 6 4 6 9 11 17 26 33 34 27 25 25 30 39 43 43 47 51 47 42 42 41 33 22 17 16 10 12 16 36 32
8 10 13 17 11 11 7 9 20 11 9 9 7 6 6 7 5 6 21 23 22 15 12 7 6 9 8 6 12 22 27 33 32 20 17 19 26 34 36 45 49 47 38 36 38 34 28 22 22 22 25 20 29 41
12 7 10 16 13 18 5 6 8 8 7 10 17 6 9 8 5 18 19 26 22 20 14 8 6 7 5 7 13 19 25 28 31 27 13 24 33 41 41 38 45 41 35 30 35 36 32 31 30 29 28 35 37 28
11 12 15 13 14 7 16 10 9 11 17 20 8 5 8 10 26 36 34 31 28 20 17 14 11 10 14 14 17 22 26 32 40 45 50 49 50 50 48 46 46 51 50 48 40 36 32 31 29 27 30 36 44 51
12 22 13 13 11 9 10 13 12 10 17 29 30 50 52 39 32 34 35 29 23 18 15 12 10 6 6 9 10 19 26 30 38 43 46 47 43 42 45 45 45 48 50 51 51 45 35 20 18 21 28 37 42 40
11 27 13 13 12 20 16 25 23 31 36 34 64 67 48 39 41 33 23 18 16 10 7 12 9 5 3 8 10 14 22 24 31 36 39 42 33 34 39 41 41 42 44 46 48 49 47 40 30 18 11 21 39 41
20 15 19 8 9 30 26 22 12 23 36 37 34 39 33 19 10 13 15 14 11 9 13 9 6 4 3 4 4 6 17 19 25 33 40 45 36 34 36 36 37 37 38 40 42 46 48 43 39 34 25 15 8 27
28 21 23 20 12 12 17 19 8 13 16 17 19 32 23 13 9 9 16 11 12 15 13 8 3 2 7 11 13 14 11 10 18 30 37 40 36 34 32 33 34 33 33 34 36 40 44 47 47 43 40 31 22 13
Wind_Direction_850mb
270 278 288 296 304 313 321 327 334 333 335 331 334 339 337 334 341 339 352 245 311 277 284 281 272 263 261 263 264 318 337 346 346 8 301 309 308 299 348 289 231 214 228 242 242 247 281 125 349 132 247 287 296 301
267 273 282 291 299 306 317 323 330 330 331 329 329 336 335 331 327 324 315 275 285 279 265 285 284 279 263 271 259 255 242 314 291 0 359 322 320 336 343 276 314 296 209 226 211 236 239 260 269 279 315 294 298 298
264 269 277 288 294 302 312 318 327 328 328 327 325 332 333 327 326 316 306 311 307 293 307 297 330 348 340 350 265 215 257 233 236 245 279 268 260 121 288 261 312 311 235 239 190 254 255 283 320 315 308 303 307 308
264 267 274 284 289 296 306 314 323 325 325 326 324 329 329 327 322 321 315 313 281 273 278 285 310 322 358 271 256 245 236 228 245 226 236 271 251 214 259 252 298 274 272 304 254 270 291 301 314 316 312 314 307 320
259 268 271 277 284 290 302 310 321 321 325 324 322 326 327 326 324 331 344 357 227 224 282 297 322 3 0 308 240 236 226 230 226 218 224 246 236 281 268 251 243 233 227 266 285 281 266 291 317 330 320 317 326 316
252 264 268 272 279 282 293 307 318 320 322 324 321 323 328 329 332 339 66 64 43 264 303 307 322 335 8 342 281 205 210 220 221 217 218 231 237 166 263 259 256 252 268 307 264 278 284 328 319 325 313 328 322 319
235 258 267 271 275 278 288 308 317 319 321 321 319 319 328 340 330 334 324 284 351 324 281 293 302 317 354 19 354 233 222 221 217 226 227 230 231 204 250 256 277 322 300 293 266 323 309 300 329 327 319 338 332 324
227 245 264 267 273 276 288 306 314 316 323 319 315 310 312 318 320 353 355 343 279 291 294 302 289 303 340 329 262 233 227 210 235 244 240 224 223 218 261 258 279 302 301 255 283 318 310 335 325 329 328 339 343 338
226 228 263 264 268 272 288 305 314 317 323 323 308 311 315 213 309 317 322 319 26 246 17 310 294 297 326 322 292 226 203 205 232 221 227 202 232 231 236 243 243 312 228 256 315 338 341 347 342 335 345 348 346 343
229 231 258 256 259 266 287 308 313 323 326 334 308 38 88 78 280 316 355 160 119 189 234 258 259 271 307 312 289 333 205 230 244 226 192 210 253 273 340 312 318 170 13 14 0 351 353 351 346 353 356 355 351 349
231 230 249 247 251 261 290 307 316 323 338 353 298 184 277 248 270 264 239 204 160 226 234 254 245 262 292 259 286 281 283 228 277 287 258 263 3 345 338 323 248 172 13 10 12 2 4 1 1 359 353 353 358 358
224 237 233 240 242 257 288 301 314 324 336 338 346 77 140 190 241 248 222 144 194 235 214 228 283 269 284 290 308 324 298 321 256 315 277 15 320 317 325 337 185 113 11 57 19 5 8 5 5 7 0 351 357 7
213 232 221 236 239 254 275 295 297 312 334 336 23 4 228 220 9 235 18 352 340 247 311 326 309 283 233 237 274 305 281 258 327 39 37 359 328 350 11 50 119 36 124 89 37 24 21 17 11 12 15 16 17 25
205 211 225 233 241 255 268 274 273 261 168 227 196 323 171 278 276 98 185 217 256 316 326 317 306 264 260 181 126 280 293 312 26 13 10 325 328 354 1 27 26 20 165 42 27 18 18 22 25 27 22 27 28 33
209 212 228 228 240 242 249 251 250 178 187 234 246 234 223 309 78 60 34 20 7 346 339 324 309 240 317 67 347 302 303 43 45 352 290 324 329 354 7 8 4 4 189 62 18 25 19 21 29 34 31 35 44 48
204 213 225 219 218 224 212 213 159 145 198 228 233 287 283 53 15 14 5 15 14 360 346 335 352 37 350 348 15 13 7 23 344 314 336 336 340 0 4 2 360 4 341 14 31 16 20 22 30 39 43 42 41 50
197 214 209 199 192 186 187 161 159 201 221 221 238 255 263 262 73 78 59 15 354 1 346 320 42 225 341 43 41 21 344 318 315 337 332 339 344 348 348 4 1 3 342 256 318 11 22 15 27 35 42 45 48 47
203 199 186 176 171 167 165 171 196 210 225 231 242 280 219 345 112 77 22 358 7 355 335 26 20 37 35 28 15 331 312 315 331 330 329 337 338 352 360 350 5 5 1 334 252 325 339 344 27 46 43 43 49 55
195 186 170 169 165 149 159 188 205 242 227 223 239 245 107 113 94 72 41 29 41 49 67 49 59 53 23 356 312 315 338 347 335 331 333 342 352 355 6 5 10 18 15 358 298 10 33 353 73 42 47 44 42 62
177 166 169 167 164 153 174 200 197 229 246 183 204 220 126 121 102 69 46 50 84 63 56 52 51 336 301 325 355 357 348 341 337 333 338 345 358 2 8 9 8 11 19 38 81 55 66 59 163 73 46 53 52 63
150 150 154 169 179 183 203 198 191 211 210 220 254 171 131 132 109 82 67 60 61 46 83 88 29 354 360 14 358 1 353 351 347 340 337 340 359 8 360 11 15 16 31 30 16 13 14 162 197 173 49 49 75 74
156 162 159 159 165 186 247 217 215 171 183 205 227 213 150 143 140 122 111 64 80 95 110 83 4 3 359 5 5 356 356 0 1 358 353 356 3 359 3 12 3 0 17 31 42 25 6 1 222 231 275 54 114 94
147 149 142 162 181 198 245 202 196 195 170 196 183 131 138 130 132 138 85 98 126 126 80 86 29 28 9 2 356 360 1 4 4 9 360 3 4 10 15 15 10 353 348 8 21 31 14 58 334 228 242 224 151 132
151 155 168 189 196 207 220 200 188 201 196 123 141 189 149 128 148 90 109 122 142 149 117 89 60 38 30 15 15 6 2 359 2 1 359 7 6 13 20 21 23 17 4 358 360 9 22 115 235 198 210 215 197 167
161 186 188 193 191 206 200 169 170 189 189 158 175 181 148 131 88 103 143 149 159 160 150 116 77 42 16 7 7 6 1 357 357 9 11 6 2 5 10 14 13 13 6 0 355 356 8 2 168 174 193 219 213 203
175 193 182 194 211 205 208 176 164 170 167 158 190 167 123 104 100 154 172 156 171 163 159 140 93 46 23 10 2 5 8 4 0 16 16 20 9 14 12 8 2 359 4 1 351 344 330 318 301 257 225 203 219 215
193 208 197 211 226 221 238 197 159 130 169 179 166 121 112 120 135 141 156 174 170 157 153 128 90 48 29 50 13 2 8 13 16 8 22 13 8 14 20 12 360 351 347 347 345 339 327 298 276 254 242 215 194 210
220 210 206 195 217 228 237 160 137 165 185 173 151 125 136 146 144 160 177 164 146 133 144 124 113 67 68 25 15 8 6 6 13 29 43 33 25 17 12 15 4 2 0 349 339 334 322 309 298 264 242 231 208 198
215 214 204 234 217 233 210 192 177 174 182 166 100 94 111 116 143 139 144 156 166 177 167 172 161 140 104 72 39 19 5 1 4 8 8 6 8 11 7 4 6 6 7 6 1 350 328 315 308 285 248 232 220 228
230 202 214 198 159 196 222 204 186 185 165 143 111 115 110 111 131 149 155 167 173 174 177 182 179 182 102 64 50 25 11 2 356 359 2 0 356 354 356 358 3 5 6 5 4 2 1 334 297 282 266 248 237 234
204 198 215 197 178 187 169 140 135 138 130 127 139 137 130 120 122 120 132 161 177 187 198 167 153 137 88 55 41 14 3 358 347 345 348 347 344 349 356 357 359 3 6 8 10 10 9 11 11 354 324 259 242 242
203 210 185 164 179 191 172 136 100 115 121 128 125 132 131 118 106 139 123 186 181 144 135 152 178 158 180 237 272 350 4 359 346 337 337 340 340 346 353 358 0 3 7 10 14 18 21 21 18 17 13 354 325 242
208 219 215 190 176 117 133 124 114 111 119 124 133 138 125 110 114 151 158 188 192 172 163 156 139 225 258 285 302 303 290 346 326 318 327 333 332 339 353 0 4 6 10 13 19 23 25 27 30 30 27 23 19 357